User: anonymous   Login
Location: Unspecified
(0.0000°N, 0.0000°E)
Time: 01:10:06
(UTC+01:00)
Language:

Ariane H10 - Orbit

View from above orbital plane
View from above orbital plane
View from above satellite
View from above satellite

Ground track
Ground track

The orbit data is extracted from the following two-line orbital elements,

1 19122U 88040B   16341.46554593 +.00000189 +00000-0 +15078-2 0  9992
2 19122 007.2697 253.3527 7148675 340.7865 002.3764 02.33392316192451
Epoch (UTC): 06 December 2016 11:10:23
Eccentricity: 0.7148675
inclination: 7.2697°
perigee height: 467 km
apogee height: 34791 km
right ascension of ascending node: 253.3527°
argument of perigee: 340.7865°
revolutions per day: 2.33392316
mean anomaly at epoch: 2.3764°
orbit number at epoch: 19245

The dashed part of the orbit path shows where the satellite is in the earth's shadow,  

DLR